Prague, Czech Republic

1:26 AM CET on February 07, 2016 (GMT +0100)
Ruzyne

Weather History for LKPR - September, 2013

Change the Weather History Date:

Tuesday, September 10, 2013

  Actual Average Record
Temperature  
Mean Temperature 56 °F -  
Max Temperature 64 °F 63 °F 82 °F (1998)
Min Temperature 48 °F 44 °F 41 °F (1996)
Degree Days  
Heating Degree Days 9    
Growing Degree Days 6 (Base 50)    
Moisture  
Dew Point 48 °F    
Average Humidity 80    
Maximum Humidity 94    
Minimum Humidity 56    
Precipitation  
Precipitation 0.20 in 0.05 in - ()
Sea Level Pressure  
Sea Level Pressure 29.99 in    
Wind  
Wind Speed 7 mph ()    
Max Wind Speed 15 mph    
Max Gust Speed -    
Visibility 5.6 miles    
Events Rain    
Averages and records for this station are not official NWS values.
T = Trace of Precipitation, MM = Missing Value Source: Averaged Metar Reports

Daily Weather History Graph

Daily Weather History Graph

Search for Another Location

Airport or City:

Trip Planner

Search our weather history database for the weather conditions in past years. The results will help you decide how hot, cold, wet, or windy it might be!

Date:

Astronomy

Sep. 10, 2013 Rise Set
Actual Time 6:31 AM CEST 7:27 PM CEST
Civil Twilight 5:58 AM CEST 8:00 PM CEST
Nautical Twilight 5:18 AM CEST 8:39 PM CEST
Astronomical Twilight 4:36 AM CEST 9:21 PM CEST
Moon 12:12 PM CEST (9/10) 9:41 PM CEST (9/10)
Length of Visible Light 14h 02m
Length of Day
12h 56m
Waxing Crescent, 25% of the Moon is Illuminated
Sep 10
Waxing Crescent
Sep 12
First Quarter
Sep 19
Full
Sep 27
Last Quarter
Oct 5
New

Hourly Weather History & Observations

Time (CEST) Temp. Dew Point Humidity Pressure Visibility Wind Dir Wind Speed Gust Speed Precip Events Conditions
12:00 AM 50.0 °F 46.4 °F 87% 30.09 in - South 4.6 mph - N/A   Clear
12:30 AM 48.2 °F 44.6 °F 87% 30.09 in - South 5.8 mph - N/A   Clear
1:00 AM 50.0 °F 44.6 °F 82% 30.09 in - South 5.8 mph - N/A   Clear
1:30 AM 48.2 °F 42.8 °F 82% 30.06 in - SSE 5.8 mph - N/A   Clear
2:00 AM 49 °F 43 °F 74% 30.09 in 25 mi South 6.7 mph - -   Scattered Clouds
2:00 AM 48.2 °F 42.8 °F 82% 30.06 in - South 4.6 mph - N/A   Clear
2:30 AM 48.2 °F 42.8 °F 82% 30.06 in - South 5.8 mph - N/A   Clear
3:00 AM 50.0 °F 44.6 °F 82% 30.04 in - SSE 5.8 mph - N/A   Clear
3:30 AM 50.0 °F 44.6 °F 82% 30.04 in - South 3.5 mph - N/A   Clear
4:00 AM 50.0 °F 44.6 °F 82% 30.04 in - SSE 8.1 mph - N/A   Clear
4:30 AM 50.0 °F 42.8 °F 76% 30.04 in - South 5.8 mph - N/A   Clear
5:00 AM 50.0 °F 44.6 °F 82% 30.04 in - South 4.6 mph - N/A   Clear
5:30 AM 50.0 °F 44.6 °F 82% 30.01 in - SE 8.1 mph - N/A   Clear
6:00 AM 50.0 °F 44.6 °F 82% 30.01 in - SSE 8.1 mph - N/A   Clear
6:30 AM 50.0 °F 42.8 °F 76% 30.01 in - South 8.1 mph - N/A   Clear
7:00 AM 48.2 °F 44.6 °F 87% 30.01 in - SSE 8.1 mph - N/A   Clear
7:30 AM 50.0 °F 44.6 °F 82% 29.98 in - SE 10.4 mph - N/A   Clear
8:00 AM 52 °F 46 °F 72% 30.01 in 31 mi SSE 4.5 mph - -   Scattered Clouds
8:00 AM 51.8 °F 46.4 °F 82% 29.98 in 6.2 mi SSE 8.1 mph - N/A   Partly Cloudy
8:30 AM 55.4 °F 46.4 °F 72% 29.98 in 6.2 mi SSE 8.1 mph - N/A   Partly Cloudy
9:00 AM 55.4 °F 46.4 °F 72% 29.98 in 6.2 mi South 8.1 mph - N/A   Partly Cloudy
9:30 AM 57.2 °F 46.4 °F 67% 29.98 in 6.2 mi South 11.5 mph - N/A   Partly Cloudy
10:00 AM 59.0 °F 46.4 °F 63% 29.98 in - South 10.4 mph - N/A   Clear
10:30 AM 60.8 °F 48.2 °F 63% 29.98 in - South 10.4 mph - N/A   Clear
11:00 AM 60.8 °F 48.2 °F 63% 29.98 in - South 12.7 mph - N/A   Clear
11:30 AM 62.6 °F 48.2 °F 59% 29.95 in - South 12.7 mph - N/A   Clear
12:00 PM 64.4 °F 48.2 °F 56% 29.95 in - SSW 13.8 mph - N/A   Clear
12:30 PM 62.6 °F 48.2 °F 59% 29.95 in - SW 15.0 mph - N/A   Clear
1:00 PM 64.4 °F 48.2 °F 56% 29.95 in 6.2 mi SW 13.8 mph - N/A   Partly Cloudy
1:30 PM 62.6 °F 50.0 °F 63% 29.95 in 6.2 mi SSW 15.0 mph - N/A   Scattered Clouds
2:00 PM 61 °F 50 °F 59% 29.94 in 37 mi SW 8.9 mph - - Rain Light Rain
2:00 PM 60.8 °F 50.0 °F 68% 29.95 in 6.2 mi SW 9.2 mph - N/A   Mostly Cloudy
2:03 PM 60.8 °F 50.0 °F 68% 29.95 in 6.2 mi SW 10.4 mph - N/A Rain Light Rain
2:30 PM 59.0 °F 51.8 °F 77% 29.95 in 5.6 mi SSW 12.7 mph - N/A Rain Light Rain
3:00 PM 59.0 °F 51.8 °F 77% 29.95 in 6.2 mi SSW 9.2 mph - N/A Rain Light Rain
3:30 PM 57.2 °F 51.8 °F 82% 29.95 in 6.2 mi SW 10.4 mph - N/A Rain Light Rain
4:00 PM 57.2 °F 53.6 °F 88% 29.95 in 4.3 mi SW 8.1 mph - N/A Rain Rain
4:05 PM 57.2 °F 53.6 °F 88% 29.95 in 5.6 mi SW 8.1 mph - N/A Rain Light Rain
4:17 PM 57.2 °F 53.6 °F 88% 29.95 in 3.7 mi SW 5.8 mph - N/A Rain Rain
4:22 PM 57.2 °F 53.6 °F 88% 29.95 in 4.3 mi SW 5.8 mph - N/A Rain Light Rain
4:30 PM 57.2 °F 53.6 °F 88% 29.95 in 4.3 mi WSW 8.1 mph - N/A Rain Light Rain
5:00 PM 55.4 °F 53.6 °F 94% 29.95 in 5.6 mi SSE 5.8 mph - N/A Rain Light Rain
5:11 PM 55.4 °F 53.6 °F 94% 29.95 in 3.1 mi South 5.8 mph - N/A Rain Rain
5:30 PM 55.4 °F 53.6 °F 94% 29.95 in 4.3 mi South 5.8 mph - N/A Rain Rain
6:00 PM 55.4 °F 53.6 °F 94% 29.95 in 5.6 mi SSW 6.9 mph - N/A Rain Light Rain
6:30 PM 55.4 °F 53.6 °F 94% 29.95 in 5.6 mi SSW 6.9 mph - N/A Rain Light Rain
7:00 PM 55.4 °F 51.8 °F 88% 29.92 in 6.2 mi SSW 8.1 mph - N/A Rain Light Rain
7:30 PM 55.4 °F 51.8 °F 88% 29.95 in 6.2 mi SSW 5.8 mph - N/A Rain Light Rain
7:48 PM 53.6 °F 51.8 °F 94% 29.95 in 6.2 mi SW 6.9 mph - N/A   Partly Cloudy
8:00 PM 54 °F 52 °F 89% 29.96 in 25 mi WSW 8.9 mph - - Rain Light Rain
8:00 PM 53.6 °F 51.8 °F 94% 29.95 in 6.2 mi WSW 11.5 mph - N/A   Partly Cloudy
8:30 PM 53.6 °F 51.8 °F 94% 29.95 in 6.2 mi West 11.5 mph - N/A   Partly Cloudy
9:00 PM 53.6 °F 50.0 °F 88% 29.98 in 6.2 mi WSW 10.4 mph - N/A   Partly Cloudy
9:30 PM 53.6 °F 48.2 °F 82% 29.98 in 6.2 mi WSW 9.2 mph - N/A   Partly Cloudy
10:00 PM 51.8 °F 48.2 °F 88% 29.98 in - WSW 9.2 mph - N/A   Clear
10:30 PM 51.8 °F 48.2 °F 88% 30.01 in - SW 6.9 mph - N/A   Clear
11:00 PM 51.8 °F 48.2 °F 88% 29.98 in - WSW 9.2 mph - N/A   Clear
11:30 PM 51.8 °F 48.2 °F 88% 30.01 in - SW 10.4 mph - N/A   Clear